Regional Weather Roundup
Issued by NWS

Home | Current Version | Previous Version | Graphics & Text | Print | Product List | Glossary On
Versions: 1 2 3 4 5 6 7 8 9 10 11 12 13 14 15 16 17 18 19 20 21 22 23 24 25 26 27 28 29 30 31 32 33 34 35 36 37 38 39 40 41 42 43 44 45 46 47 48 49 50
000
ASUS44 KMEG 212000
RWRTN
TENNESSEE HOURLY STATE WEATHER ROUNDUP
NATIONAL WEATHER SERVICE MEMPHIS TN
200 PM CST TUE NOV 21 2017

TNZ002-004-019-021-049-052-054-088>092-212100-
WEST TENNESSEE

CITY           SKY/WX    TMP DP  RH WIND       PRES   REMARKS
MEMPHIS INTL   CLOUDY    60  36  40 S8        30.02S
NWS MEMPHIS      N/A     60 N/A N/A MISG        N/A
JACKSON        CLOUDY    60  35  39 W9        30.02F
DYERSBURG      MOSUNNY   59  37  44 SW8       30.01F
$$

TNZ008-025-027-028-033-062-065-066-212100-
NORTH MIDDLE TENNESSEE

CITY           SKY/WX    TMP DP  RH WIND       PRES   REMARKS
NASHVILLE      PTSUNNY   59  27  29 SW8       30.01F
CLARKSVILLE    MOSUNNY   57  32  38 S15       29.99F
SMYRNA         SUNNY     61  30  31 SW8       30.02F
CROSSVILLE     PTSUNNY   59  47  64 VRB6G21   30.00F
$$

TNZ061-075-076-078-094-096-097-212100-
SOUTH MIDDLE TENNESSEE

CITY           SKY/WX    TMP DP  RH WIND       PRES   REMARKS
WINCHESTER     SUNNY     63  43  48 W8        30.00F
$$

TNZ017-018-042-046-047-212100-
NORTHEAST TENNESSEE

CITY           SKY/WX    TMP DP  RH WIND       PRES   REMARKS
TRI CITIES     MOSUNNY   62  43  49 S3        30.02F
$$

TNZ012-013-036-069-073-074-212100-
CENTRAL EAST TENNESSEE

CITY           SKY/WX    TMP DP  RH WIND       PRES   REMARKS
KNOXVILLE      MOSUNNY   59  45  59 W6        30.01F
OAK RIDGE      CLOUDY    56  46  69 W7        30.04F
$$

TNZ083-085-099-212100-
SOUTHEAST TENNESSEE

CITY           SKY/WX    TMP DP  RH WIND       PRES   REMARKS
CHATTANOOGA    CLOUDY    58  47  66 S3        30.03F
$$

SKY/WX REPORTED AS FAIR MEANS FEW OR NO CLOUDS BELOW
12 THOUSAND FEET.





USA.gov is the U.S. government's official web portal to all federal, state and local government web resources and services.